Flag for Germany Weather past 2 weeks in Viersen, North Rhine-Westphalia, Germany

Now
45 °F

Passing clouds.


Feels Like: 38 °F
Forecast: 32 / 47 °F
Wind: 14 mph from Northwest

Location: Monchengladbach Airport

Current Time: Feb 27, 2015 at 4:37:05 PM

Latest Report: Feb 27, 2015 at 4:20 PM


Visibility: N/A

Pressure: 30.04 "Hg

Humidity: 57%

Dew point: 30 °F

Location of ViersenLocation

Historic Weather in Viersen — Graph

°F

Viersen temperature yesterday

Maximum temperature yesterday: 50 °F (at 12:50 PM)
Minimum temperature yesterday: 36 °F (at 7:50 AM)
Average temperature yesterday: 46 °F

Past Weeks' High & Low Weather Summary

 TemperatureHumidityPressure
High52 °F (Feb 14, 2:50 PM)100% (Feb 13, 7:50 AM)30.77 "Hg (Feb 13, 7:50 AM)
Low30 °F (Feb 15, 7:50 AM)57% (Feb 27, 3:20 PM)29.45 "Hg (Feb 21, 8:20 AM)
Average41 °F82%30.01 "Hg
* Reported Feb 12 3:20 PM — Feb 27 3:20 PM, Viersen, Weather by CustomWeather, © 2015

Note: Actual official high and low records may vary slightly from our data, if they occured in-between our weather recording intervals... More about our weather records

Advertising

Viersen weather history for previous 24 hours

 ConditionsComfort  
Time TempWeatherWind HumidityBarometerVisibility
3:20 PM
Fri, Feb 27
46 °FPassing clouds.16 mph57%30.04 "HgN/A
2:50 PM46 °FPassing clouds.16 mph62%30.01 "HgN/A
2:20 PM45 °FPassing clouds.15 mph66%30.01 "HgN/A
1:50 PM45 °FPassing clouds.18 mph61%30.01 "HgN/A
1:20 PM45 °FPassing clouds.18 mph66%30.01 "HgN/A
12:50 PM45 °FPassing clouds.14 mph66%30.01 "HgN/A
12:20 PM43 °FPassing clouds.13 mph76%29.98 "HgN/A
11:50 AM43 °FPartly cloudy.13 mph87%29.98 "HgN/A
11:20 AM43 °FPassing clouds.12 mph87%29.98 "HgN/A
10:50 AM43 °FPassing clouds.12 mph87%29.95 "HgN/A
10:20 AM43 °FPassing clouds.12 mph87%29.95 "HgN/A
9:50 AM41 °FPassing clouds.12 mph93%29.95 "HgN/A
9:20 AM41 °FPartly sunny.12 mph93%29.92 "HgN/A
8:50 AM41 °FLight rain. Broken clouds.14 mph93%29.92 "HgN/A
8:20 AM41 °FLight rain. Broken clouds.13 mph93%29.89 "HgN/A
7:50 AM39 °FLight rain. Broken clouds.8 mph100%29.89 "HgN/A
7:20 AM39 °FLight rain. Broken clouds.7 mph93%29.89 "HgN/A
7:20 PM
Thu, Feb 26
45 °FRain. Fog.9 mph93%29.86 "Hg3 mi
6:50 PM46 °FLight rain. Passing clouds.10 mph87%29.89 "HgN/A
6:20 PM46 °FPassing clouds.12 mph82%29.89 "HgN/A
5:50 PM48 °FLight rain. Passing clouds.12 mph76%29.89 "HgN/A
5:20 PM48 °FPassing clouds.13 mph76%29.89 "HgN/A
4:50 PM48 °FPassing clouds.9 mph76%29.92 "HgN/A
4:20 PM48 °FClear.10 mph76%29.92 "Hg10 mi
Weather by CustomWeather, © 2015

See weather overviewHow to use our weather pages